Location: Natural Bridges National Monument
(37.6093°N, 109.9767°W)
Time: 13:26:51
(UTC-06:00)

Cosmos 1727 Rocket - Visible Passes

Search period start: 26 April 2015 00:00
Search period end: 06 May 2015 00:00
Orbit: 962 x 996 km, 82.9° (Epoch: 26 April)

Date Brightness Start Highest point End Pass type
(mag) Time Alt. Az. Time Alt. Az. Time Alt. Az.
26 Apr 6.0 02:43:07 10° NNE 02:47:51 22° ENE 02:51:05 16° ESE visible
26 Apr 4.2 04:27:34 10° NNW 04:33:43 51° W 04:35:46 37° SW visible
27 Apr 5.0 03:08:40 10° N 03:14:37 41° ENE 03:16:47 32° ESE visible
27 Apr 5.0 04:54:37 10° NNW 04:59:53 27° W 05:01:29 24° WSW visible
28 Apr 4.0 03:34:46 10° N 03:41:09 78° E 03:42:33 56° SSE visible
28 Apr 5.6 05:22:43 10° NW 05:25:56 14° W 05:27:14 13° W visible
29 Apr 6.0 02:17:04 10° NNE 02:21:30 20° ENE 02:23:40 18° E visible
29 Apr 4.1 04:01:15 10° NNW 04:07:28 57° W 04:08:22 52° SW visible
30 Apr 5.1 02:42:30 10° N 02:48:18 37° ENE 02:49:31 35° E visible
30 Apr 4.8 04:28:12 10° NNW 04:33:40 30° W 04:34:13 30° W visible
01 May 4.1 03:08:31 10° N 03:14:52 70° E 03:15:25 67° ESE visible
01 May 5.6 04:56:01 10° NW 04:59:44 16° W 05:00:07 15° W visible
02 May 6.0 01:51:03 10° NNE 01:55:07 18° ENE 01:56:38 17° E visible
02 May 4.0 03:34:57 10° NNW 03:41:14 64° W 03:41:20 64° W visible
03 May 5.2 02:16:20 10° NNE 02:21:59 34° ENE 02:22:35 33° E visible
03 May 4.8 04:01:48 10° NNW 04:07:18 34° W 04:07:18 34° W visible
04 May 4.3 02:42:17 10° N 02:48:33 63° E 02:48:33 63° E visible
04 May 5.5 04:29:23 10° NW 04:33:17 18° W 04:33:17 18° W visible
05 May 6.1 01:25:06 10° NNE 01:28:45 16° ENE 01:29:51 16° E visible
05 May 4.0 03:08:38 10° NNW 03:14:34 69° WNW 03:14:34 69° WNW visible
